Regional Weather Roundup
Issued by NWS Cleveland, OH

Home | Current Version | Previous Version | Graphics & Text | Print | Product List | Glossary On
Versions: 1 2 3 4 5 6 7 8 9 10 11 12 13 14 15 16 17 18 19 20 21 22 23 24 25 26 27 28 29 30 31 32 33 34 35 36 37 38 39 40 41 42 43 44 45 46 47 48 49 50
000
ASUS41 KCLE 211502
RWRCLE
OHIO REGIONAL WEATHER ROUNDUP
NATIONAL WEATHER SERVICE CLEVELAND, OH
1000 AM EST FRI NOV 21 2014

NOTE: "FAIR" INDICATES FEW OR NO CLOUDS BELOW 12,000 FEET WITH NO
SIGNIFICANT WEATHER AND/OR OBSTRUCTIONS TO VISIBILITY.

OHZ001>008-015>018-024>027-034-035-043-044-211600-
   NORTHWEST OHIO

CITY           SKY/WX    TMP DP  RH WIND       PRES   REMARKS
DEFIANCE       SUNNY     19  10  68 SW5       30.48R WCI  12
FINDLAY        FAIR      19  10  68 W5        30.47R WCI  12
TOLEDO EXPRESS SUNNY     20  11  68 CALM      30.47R
TOLEDO EXEC    SUNNY     20  12  71 SW9       30.48R WCI   9
LIMA           SUNNY     18   9  68 SW3       30.47R
$$

OHZ009>014-019>023-028>033-038-089-211600-
   NORTHEAST OHIO

CITY           SKY/WX    TMP DP  RH WIND       PRES   REMARKS
CLE-HOPKINS    CLOUDY    20  13  74 SW9       30.47R WCI   9
CLE-LAKEFRONT  CLOUDY    24  10  55 W10       30.45R WCI  14
CUY CO. ARPT   NOT AVBL
LORAIN-ELYRIA  CLOUDY    20  12  71 W12       30.46R WCI   8
ASHTABULA      CLOUDY    23  10  57 NW8       30.42R WCI  14
AKRON-CANTON   FLURRIES  21  11  65 W7        30.42R WCI  12
WOOSTER        MOSUNNY   20   9  62 W7        30.45R WCI  11
MANSFIELD      MOSUNNY   19   9  65 W6        30.44R WCI  11
YOUNGSTOWN     PTSUNNY   20  14  77 W9        30.41R WCI   9
$$

OHZ042-051>053-060>062-070>072-077>081-211600-
  SOUTHWEST OHIO

CITY           SKY/WX    TMP DP  RH WIND       PRES   REMARKS
CINC-COVINGTON SUNNY     24   8  50 E5        30.50R WCI  18
CINC-LUNKEN    SUNNY     24  10  55 CALM      30.55R
HAMILTON       SUNNY     23  13  65 CALM      30.53R
DAYTON         SUNNY     21   9  59 N3        30.49R
WRIGHT-PAT AFB SUNNY     19   8  60 N3        30.50R
DAYTON GENERAL SUNNY     21   9  59 CALM      30.49R
WILMINGTON     SUNNY     21   9  59 CALM      30.48R
$$

OHZ036-037-039>041-045>050-054>059-063>069-073>076-082>088-211600-
  CENTRAL AND SOUTHEAST OHIO

CITY           SKY/WX    TMP DP  RH WIND       PRES   REMARKS
COLUMBUS       SUNNY     20   8  60 CALM      30.50R
OSU AIRPORT    SUNNY     21   9  59 CALM      30.49R
BOLTON FIELD   SUNNY     19   9  63 NW3       30.50R
RICKENBACK AFB NOT AVBL
NEWARK         SUNNY     20   9  62 CALM      30.49R
MARION         SUNNY     18   9  68 W5        30.48R WCI  11
LANCASTER      SUNNY     21  10  62 CALM      30.50R
ZANESVILLE     SUNNY     21  10  62 CALM      30.48R
NEW PHILLY     SUNNY     22  10  60 W5        30.48R WCI  16
$$



USA.gov is the U.S. government's official web portal to all federal, state and local government web resources and services.